www.pogodaiklimat.ru

Погода и климат >> Архив погоды >> Россия >> Мурманская область >> Пялица


ПОГОДА в Пялице

  • Прогноз погоды в Пялице
  • Монитор погоды в Пялице

АРХИВ ПОГОДЫ в Пялице

Время (UTC), дата Ветер
(напр.,м/с)
 
Видим.   Явления Облачность Т
(С)
Тd
(С)
f
(%)
Тe
(С)
Тes
(С)
Комфортность P
(гПа)
Po
(гПа)
Тmin
(С)
Tmax
(С)
R
(мм)
R24
(мм)
S
(см)
00 17.01 ЮВ 4 20 км {ливн. осадки} 9/9 600 м
[Cb cap]
-4.3 -6.7 83 -11 -11 989.9 988.8
03 17.01 СВ 3 20 км 10/10 600 м
[Cb cap]
-5.7 -7.8 85 -11 -11 989.6 988.5 -5.7 0.0
06 17.01 С 2 20 км 10/10 600 м
[Cb cap]
-6.2 -8.3 85 -11 -11 988.9 987.8 -6.3 0.0 26
09 17.01 З 4 20 км 8/8 600 м
[Sc]
-7.4 -10.8 77 -14 -14 988.4 987.3
12 17.01 СЗ 3 20 км 9/6 600 м
[Sc Ci fib]
-8.7 -10.8 85 -15 -15 988.0 986.9
15 17.01 С 4 20 км 8/4 600 м
[Sc Ci fib]
-9.5 -10.7 91 -16 -16 987.7 986.6 0.0
18 17.01 С 2 20 км 8/1 600 м
[Sc Ci fib]
-11.4 -12.5 92 -16 -16 987.5 986.4 -6.1
21 17.01 СВ 5 н/о н/о -8.7 -10.1 90 -16 -16 987.6 986.5
00 18.01 С 4 н/о н/о -7.8 -9.0 91 -15 -15 987.3 986.2
03 18.01 СВ 5 4000 м слаб. ливневой снег 10/10 600 м
[Cb cap]
-4.9 -5.5 96 -12 -12 987.5 986.4 -11.9 2
06 18.01 СВ 10-14
{14}
4000 м слаб. ливневой снег {метель} 10/10 300 м
[Cb cap]
-4.6 -5.2 96 -14 -14 987.9 986.8 -11.5 3 28
09 18.01 СВ 9-13
{14}
10 км слаб. ливневой снег {метель} 9/9 600 м
[Cb cap]
-5.1 -5.8 95 -15 -15 989.2 988.1
12 18.01 В 10-13
{15}
4000 м слаб. ливневой снег {метель} 10/10 600 м
[Cb cap]
-6.0 -7.0 93 -16 -16 990.9 989.8
15 18.01 СВ 9-12
{14}
4000 м слаб. ливневой снег {метель} 10/10 600 м
[Cb cap]
-6.3 -7.1 94 -16 -16 992.2 991.1 2
18 18.01 В 10-13
{17}
10 км слаб. ливневой снег {метель} 9/9 600 м
[Cb cap]
-6.8 -8.4 88 -17 -17 994.0 992.9 -4.6 0.7
21 18.01 В 11-13
{15}
н/о н/о -8.0 -10.4 83 -19 -19 995.9 994.8
00 19.01 В 9-12
{13}
20 км позёмок {ливн. осадки} 9/3 600 м
[Sc Ci fib]
-8.5 -10.8 83 -18 -18 997.3 996.2
03 19.01 В 9-12
{13}
20 км позёмок 8/4 600 м
[Sc Ci fib]
-8.5 -11.3 80 -18 -18 998.5 997.4 -8.7 0.0
06 19.01 В 7-9
{13}
20 км позёмок 3/1 600 м
[Sc Ci fib]
-9.4 -12.0 81 -18 -18 999.4 998.3 -9.4 0.0 26
09 19.01 В 9-12
{14}
20 км позёмок 6/1 600 м
[Sc Ci fib]
-8.8 -12.2 76 -19 -19 1000.3 999.2
12 19.01 В 9-12
{14}
20 км позёмок 3/1 600 м
[Sc Ci fib]
-9.4 -13.4 73 -19 -19 1000.5 999.4
15 19.01 В 7-10
{12}
20 км позёмок 9/9 300 м
[Cb cap]
-9.9 -11.4 89 -19 -19 1001.4 1000.3
18 19.01 В 8-10
{11}
20 км позёмок 9/9 300 м
[Cb cap]
-9.8 -11.0 91 -20 -20 1001.7 1000.6 -8.3
00 20.01 СВ 6-7
{10}
10 км слаб. ливневой снег {метель} 9/9 300 м
[Cb cap]
-12.8 -13.8 92 -22 -22 1002.5 1001.4
03 20.01 СВ 6 10 км слаб. ливневой снег 9/9 300 м
[Cb cap]
-12.7 -13.9 91 -22 -22 1002.2 1001.1 -13.6 0.0
06 20.01 В 6 10 км слаб. ливневой снег 9/9 600 м
[Cb cap]
-13.1 -14.4 90 -22 -22 1002.5 1001.4 -13.6 0.2 28
09 20.01 СВ 6 4000 м слаб. ливневой снег 10/10 600 м
[Cb cap]
-13.4 -14.7 90 -23 -23 1003.6 1002.5
12 20.01 СВ 4 10 км слаб. ливневой снег 6/6 600 м
[Cb cap]
-15.3 -16.6 90 -23 -23 1003.5 1002.4
15 20.01 С 3 10 км слаб. ливневой снег 9/9 600 м
[Cb cap]
-14.4 -15.7 90 -21 -21 1002.9 1001.8 0.5
18 20.01 С 2 10 км слаб. ливневой снег 9/8 600 м
[Cb cap Ci fib]
-13.8 -14.9 91 -19 -19 1002.5 1001.4 -13.0 5
00 21.01 С 3 20 км {ливн. осадки} 8/1 600 м
[Sc Ci fib]
-12.0 -13.0 92 -18 -18 1003.2 1002.1
03 21.01 СЗ 1 20 км 10/10 600 м
[Sc]
-11.8 -12.8 92 -14 -14 1003.3 1002.2 -13.9 0.2
06 21.01 ЮЗ 1 20 км 9/9 600 м
[Sc]
-10.3 -11.3 92 -13 -13 1003.0 1001.9 -13.0 0.0 28
09 21.01 С 6 20 км 8/4 600 м
[Sc Ac trans Ci fib]
-10.6 -13.5 79 -19 -19 1003.2 1002.1
12 21.01 С 6 20 км 8/6 600 м
[Cb cap Ac trans Ci fib]
-10.5 -13.7 77 -19 -19 1002.9 1001.8
15 21.01 С 6-8
{11}
20 км {метель} 3/1 600 м
[Sc Ac trans Ci fib]
-12.4 -15.3 79 -21 -21 1002.5 1001.4 0.0
18 21.01 СЗ 4-5
{12}
20 км {метель} 3/1 600 м
[Sc Ci fib]
-13.4 -15.9 81 -21 -21 1002.8 1001.7 -9.6 0.0
00 22.01 З 2 20 км 1/0
[Ci fib]
-20.0 -21.7 86 -26 -26 1002.6 1001.4
03 22.01 З 4 20 км 3/0
[Ci fib]
-19.9 -22.0 83 -29 -29 1001.9 1000.7 -23.3
06 22.01 З 3 н/о 6/3 600 м
[Sc Ac trans Ci fib]
-17.7 -19.0 90 -25 -25 1001.3 1000.2 -23.3 28
09 22.01 З 4 20 км 8/5 600 м
[Sc Ci fib]
-15.6 -16.8 90 -24 -24 1001.1 1000.0
12 22.01 С 2 10 км слаб. ливневой снег 9/9 600 м
[Cb cap]
-10.4 -11.7 90 -15 -15 1001.4 1000.3
15 22.01 СЗ 2 20 км {ливн. осадки} 8/8 600 м
[Cb cap]
-11.1 -12.2 92 -16 -16 1001.8 1000.7 0.2
18 22.01 С 2 20 км {ливн. осадки} 6/4 600 м
[Sc Ci fib]
-11.3 -12.2 93 -16 -16 1002.5 1001.4 -9.8 0.2
00 23.01 С 4 20 км 9/9 600 м
[Sc]
-11.5 -12.5 92 -19 -19 1003.4 1002.3
03 23.01 СВ 4 20 км 6/6 600 м
[Sc]
-10.1 -11.0 93 -17 -17 1003.8 1002.7 -14.2
06 23.01 С 2 20 км 9/9 600 м
[Cb cap]
-10.4 -11.2 94 -15 -15 1004.5 1003.4 -14.2 27
09 23.01 С 1 20 км 3/3 600 м
[Sc]
-15.7 -17.0 90 -18 -18 1005.3 1004.2
12 23.01 СЗ 1 20 км 4/3 600 м
[Sc Ci fib]
-14.8 -15.9 91 -17 -17 1005.2 1004.1
15 23.01 С 1 20 км 3/3 600 м
[Sc]
-15.2 -16.5 90 -18 -18 1005.8 1004.7
18 23.01 С 4 20 км 8/3 600 м
[Sc Ci fib]
-11.1 -12.0 93 -18 -18 1005.8 1004.7 -10.4

 

Местоположение метеостанции Пялица (Мурманская область, Россия): широта 66.18 долгота 39.53 высота над уровнем моря 9 м.

В архиве по умолчанию представлена погода в Пялице за последнюю неделю. Архивные данные за месяц целиком и за предыдущие месяцы, начиная с января 2011 года, Вы можете получить, выбрав интересующий диапазон дат из раскрывающегося списка и нажав кнопку "Ввод!".


*Определитесь, кто Вы:
робот инопланетянин человек

Внимание! Время в таблицах - всемирное. Для получения местного времени необходимо прибавить поправку, которая равна 3 ч.

Смотрите также архив погоды в соседних городах и на ближайших метеорологических станциях:

Погода на Сосновец Острове (Мурманская область, Россия) (61 км)
Погода на Чаваньга реке (Мурманская область, Россия) (81 км)
Погода в Зимнегорском Маяке (Архангельская область, Россия) (81 км)
Погода в Каневке (Мурманская область, Россия) (106 км)
Погода в Кепино (Архангельская область, Россия) (138 км)
Погода на Моржовец Острове (Архангельская область, Россия) (144 км)
Погода на Мудьюг Острове (Архангельская область, Россия) (152 км)
Погода в Кашкаранцах (Мурманская область, Россия) (158 км)
Погода в Унском Маяке (Архангельская область, Россия) (159 км)
Погода в Жижгине (Архангельская область, Россия) (165 км)

Пояснения к столбцам:

Ветер - указаны скорость ветра в м/с - средняя за 10 мин, порывы в срок и между сроками (в фигурных скобках) и направление, откуда дует ветер: С - северный, СВ - северо-восточный, В - восточный, ЮВ - юго-восточный, Ю - южный, ЮЗ - юго-западный, З - западный, СЗ - северо-западный.
Видимость - горизонтальная дальность видимости в метрах или километрах. При видимости от 1 до 10 км при отсутствии осадков обычно наблюдается дымка, при ухудшении видимости до 1 км и менее - туман. В сухую погоду видимость может ухудшаться дымом, пылью или мглою.
Явления - указаны атмосферные явления, наблюдавшиеся в срок или в последний час перед сроком; фигурными скобками обозначены явления, наблюдавшиеся между сроками (за 1-3 часа до срока); квадратными скобками обозначены град или гололедные отложения с указанием их диаметра в мм.
Облачность - указаны через наклонную черту общая и нижняя облачность в баллах и высота нижней границы облаков в метрах; квадратными скобками обозначены формы облаков: Ci - перистые, Cs - перисто-слоистые, Cc - перисто-кучевые, Ac - высококучевые, As - высокослоистые, Sc - слоисто-кучевые, Ns - слоисто-дождевые, Cu - кучевые, Cb - кучево-дождевые. Подробнее классификацию облаков см. в Атласе облаков (PDF).
T - Температура воздуха - температура, измеренная на высоте 2 м над землей.
Td - Температура точки росы - температура, при понижении до которой содержащийся в воздухе водяной пар достигнет насыщения.
f - Относительная влажность воздуха - влажноcть воздуха, измеренная на высоте 2 м над землей.
Te - Эффективная температура - температура, которую ощущает одетый по сезону человек в тени. Характеристика душности погоды. При расчете учитывается влияние влажности воздуха и скорости ветра на теплоощущения человека.
Tes - Эффективная температура на солнце - температура, которую ощущает человек, с поправкой на солнечный нагрев. Характеристика знойности погоды. Зависит от высоты солнца над горизонтом, облачности и скорости ветра. Ночью, в пасмурную погоду, а также при ветре 12 м/с и более поправка равна нулю.
P - Атмосферное давление - приведенное к уровню моря атмосферное давление.
Po - Атмосферное давление - измеренное на уровне метеостанции атмосферное давление.
Tmin - Минимальная температура - минимум температуры воздуха на высоте 2 м над землей.
Tmax - Максимальная температура - максимум температуры воздуха на высоте 2 м над землей.
R - Количество осадков - Количество выпавших осадков за период времени, мм. При наведении курсора мыши на число - период времени, за который выпало указанное количество осадков.
R24 - Количество осадков - Количество выпавших осадков за 24 часа, мм.
S - Снежный покров - Высота снежного покрова, см. При наведении курсора мыши на число - состояние снежного покрова и степень покрытия местности в баллах.